loading
|
Showing default

OV1-4, 2121

Orbit data source: Space-Track

OV1-4, 2121 is a payload satellite owned by USAF OAR (US) in LEO that was launched on Wed, 30 Mar 1966 UTC via an ATLAS D launch vehicle from the Air Force Western Test Range (AFWTR). Payloads include a variety of satellites, spacecraft, and rockets equipped with specific instruments for various scientific and technological missions. These include communications satellites like Starlink; space stations such as the ISS; scientific satellites like the Hubble; Earth observation satellites from companies like Planet Labs, Umbra, and HawkEye 360; GPS; miniature CubeSats for education and research; and military/defense satellites.

Loading next visibility...
Loading greatness...
OV1-4 details
Identifier
2121, 1966-025A
Orbit
LEO
Last TLE update1 day ago
Origin
Flag of USUSAF OAR (US)
ManufacturerGD/Convair
MissionDefense Science
Bus & MotorOV1, Unknown motor
Mass87 kg wet, 87 kg dry
Launch date (UTC)
1966-03-30 (59 years ago)
Launch vehicle
ATLAS D
Launch site
Air Force Western Test Range (AFWTR)
Object type
Payload
Rocket body
Debris
Shape & HBRDomed Cyl, 1.4 m
Radar Cross Section0.946 m², Medium (>0.1 m² and < 1m²)

Expand to show TLE details & history

TLE from 1 day ago
0 OV1-4
1 02121U 66025A   24276.44312728  .00000727  00000-0  37714-3 0  9998
2 02121 144.5036 113.5258 0083842 240.7016 118.5258 13.87172996964621
Epoch: 2024-10-02T10:38Z
Definitive object data (Epoch: 2024-10-02T10:38:06.197Z)
Latitude0.00003°
Longitude-57.64248°
Altitude967.261 km
Speed7.355 km/s
True Right ascension07h 34m 06s
True Declination0° 00' 00"
Sunlit
Object was in daylight at TLE epoch
Predictive object data (real-time)
Latitude26.86974°
Longitude173.24589°
Altitude968.189 km
Speed7.357 km/s
Apparent Right ascension22h 01m 13s
Apparent Declination-3° 59' 49"
Sunlit
Object is in full shadow
Predictive observer data (real-time)
Local Sidereal Time08:45:03
Azimuth329.458° NNW
Elevation-50.173°
Doppler factor1
Orbital elements
Apogee1,002.905 km
Perigee880.166 km
Semi-major axis7,319.673 km
Eccentricity0.0083842
Inclination144.5036°
RAAN113.5258°
Arg. of periapsis240.7016°
True anomaly119.36569°
Mean anomaly118.5258°
Eccentric anomaly118.94617°
Mean motion3.46582 °/min
BSTAR0.00037714
Period103.87 mins
No data available

OV1-4 Visibility forecast

Observer location: 39.9160978°, -105.1181434

OV1-4 is not visible in the next 10 days
Span
Click to sort rows by Start time (UTC) header in descending order
Start Az.
Max El. time (UTC)
Max El. Az.
Max El.
End time (UTC)
End Az.